Wind_Speed
44 43 44 45 45 45 46 46 48 48 48 46 45 44 44 44 43 42 41 39 37 37 36 35 33 32 31 29 28 27 27 27 28 30 31 32 34 36 37 38 40 41 42 44
46 45 45 45 44 44 45 46 47 48 47 46 45 44 44 43 42 41 40 38 36 36 35 34 32 30 29 29 27 27 26 25 26 27 29 30 32 34 35 36 37 40 41 41
47 46 47 46 44 44 45 46 46 47 47 46 44 43 42 42 41 40 39 38 36 35 34 33 31 29 28 27 28 26 25 25 26 26 27 29 30 33 35 36 36 38 40 40
49 48 48 46 45 45 46 46 46 47 45 44 44 43 42 41 40 39 38 37 36 35 33 32 30 29 27 27 27 26 26 25 26 27 27 28 30 33 34 35 37 39 40 40
49 50 50 46 45 46 47 46 45 45 44 44 44 42 40 40 40 39 38 37 35 34 32 31 30 29 28 28 26 25 25 25 25 27 28 29 30 32 33 35 36 37 39 39
48 49 50 46 46 45 47 46 44 44 44 43 43 42 38 39 38 38 37 36 35 34 32 31 30 29 27 26 26 24 23 24 25 26 27 28 28 30 32 35 36 36 38 38
47 48 48 46 45 45 46 46 44 44 43 43 42 41 40 39 38 38 37 37 35 34 33 31 30 29 27 25 24 24 23 23 24 25 26 28 29 30 32 34 35 34 36 37
46 47 46 44 44 45 46 46 45 44 43 43 42 40 39 38 38 38 38 37 36 34 32 31 29 27 26 25 24 22 22 22 24 25 25 27 29 30 32 34 35 35 36 35
45 45 44 44 45 45 45 46 45 44 43 42 41 40 39 38 38 38 37 36 35 33 31 30 29 27 26 25 24 22 21 21 22 23 26 26 27 30 31 32 35 37 35 34
46 44 44 44 44 44 44 45 44 43 41 40 40 39 38 38 38 37 36 35 33 32 30 29 27 26 25 24 24 23 21 21 21 23 24 27 28 30 31 32 33 35 35 35
46 43 43 43 43 43 44 43 42 41 40 40 39 38 38 37 36 35 35 34 33 31 29 28 26 26 25 24 24 23 22 21 22 23 24 26 27 29 31 32 34 34 34 35
44 42 43 42 42 42 42 41 40 39 39 39 38 37 36 35 34 34 34 33 32 30 28 26 26 25 25 25 24 23 22 22 22 23 24 25 27 28 30 32 34 34 35 36
43 42 42 41 40 40 40 39 39 37 37 36 36 35 34 33 33 33 32 32 31 29 27 26 25 25 25 24 24 23 22 23 23 23 23 24 27 28 30 33 34 35 35 36
41 41 40 39 39 38 38 37 36 35 35 35 34 34 33 32 32 32 31 30 29 28 26 25 25 24 24 23 23 23 23 24 24 24 24 24 26 28 30 33 34 35 35 35
39 39 38 37 36 36 36 35 34 33 33 33 33 32 31 31 31 31 30 29 28 27 25 24 23 23 23 22 21 22 22 23 23 24 25 26 28 28 30 32 34 35 36 36
35 36 35 35 35 35 34 33 33 32 32 32 31 31 31 31 30 29 29 28 27 25 24 22 21 21 21 21 22 23 23 24 24 24 24 26 28 29 31 32 34 35 36 36
33 33 33 33 33 33 32 32 31 31 31 31 30 30 29 29 29 29 27 26 25 23 21 19 19 19 19 20 21 21 23 24 24 25 25 26 27 29 30 32 34 34 35 35
31 32 32 32 32 31 30 29 29 29 30 30 29 29 29 28 27 27 25 24 22 20 18 17 17 17 18 18 18 19 20 22 24 25 26 27 28 28 29 31 33 33 33 34
29 30 29 29 29 29 28 27 28 28 28 28 27 27 27 26 25 23 22 21 20 18 17 17 16 16 16 16 17 17 19 21 23 24 26 27 28 29 30 30 31 31 31 33
28 28 27 27 27 26 26 26 26 27 26 25 25 25 24 24 23 22 22 21 19 18 17 16 16 17 17 16 17 18 19 21 22 24 26 27 28 29 31 31 31 30 31 33
25 25 25 25 25 25 25 25 25 25 24 24 24 24 24 23 22 21 21 20 18 17 16 16 16 17 17 18 18 19 20 21 23 24 26 27 29 30 31 31 30 30 31 32
24 24 24 24 23 23 24 24 24 24 23 23 23 23 23 22 21 20 19 18 17 16 15 15 16 17 18 18 18 19 20 21 23 24 26 28 30 31 31 31 31 31 31 32
23 23 23 23 22 22 23 23 23 23 23 23 23 22 22 20 20 18 17 16 15 15 15 15 16 17 17 18 19 19 20 21 23 25 27 28 30 30 30 31 31 30 31 32
22 22 22 22 21 21 22 22 22 22 22 22 21 20 19 18 18 17 16 16 15 14 14 14 15 16 16 17 18 19 19 21 23 25 27 28 29 29 30 30 30 30 31 32
21 21 20 21 20 21 21 21 21 20 20 19 19 18 18 17 17 16 15 14 14 14 14 14 15 16 17 17 18 19 19 21 23 25 27 28 28 29 30 31 31 31 31 31
20 20 19 20 20 21 20 20 19 18 18 18 17 17 16 15 14 14 13 13 13 13 13 14 15 15 17 18 18 19 19 21 23 24 26 27 27 28 30 31 32 31 30 30
19 19 19 19 20 20 19 18 18 17 17 17 17 16 15 14 14 13 13 13 12 12 13 13 14 15 16 17 18 19 20 21 22 24 25 25 27 28 28 30 30 30 30 30
Wind_Direction
291 293 294 296 298 299 300 302 303 306 307 310 308 308 307 306 306 305 303 302 300 300 299 296 292 290 287 282 278 272 269 264 258 253 246 240 238 236 234 228 225 221 221 221
289 290 291 293 296 297 299 301 302 303 306 307 307 306 306 306 305 304 302 301 300 299 297 295 293 289 284 281 277 272 270 264 257 251 245 240 236 231 228 227 226 222 220 220
288 289 289 292 296 296 297 299 300 302 304 305 304 304 304 305 305 304 302 300 299 298 296 293 292 287 281 279 278 275 269 262 255 248 241 236 233 230 228 227 226 222 222 221
287 288 288 294 295 295 296 297 299 301 303 303 304 304 304 304 305 305 303 301 299 297 295 293 291 285 281 280 277 270 266 261 253 245 239 234 233 230 228 226 223 220 220 221
286 287 290 294 295 295 295 296 298 300 300 302 303 303 304 304 304 305 304 303 300 297 294 291 290 285 280 278 277 270 266 258 249 245 240 236 232 229 226 222 218 216 218 218
285 287 290 295 295 295 295 296 298 299 300 301 303 302 303 303 302 303 303 302 300 297 293 289 287 286 282 279 275 270 264 256 246 242 238 235 231 228 225 220 215 215 214 214
285 287 290 294 294 295 295 298 299 299 300 301 301 302 302 302 302 301 302 301 300 295 291 287 286 285 281 279 274 268 260 252 243 238 236 233 231 227 223 218 214 212 209 209
285 286 291 293 293 294 296 297 298 298 299 299 300 300 300 300 301 301 301 300 298 294 289 286 284 282 277 274 271 265 258 250 244 238 233 230 228 225 222 220 217 211 209 208
283 285 288 289 291 293 294 296 296 297 298 298 299 299 298 299 299 299 300 299 297 293 288 284 282 279 275 270 266 262 256 249 243 236 230 228 226 220 218 219 217 213 210 208
282 285 286 288 290 292 294 295 295 296 296 296 297 297 298 298 298 298 298 298 297 294 288 283 279 277 274 269 265 260 251 244 240 233 228 226 225 221 220 218 213 212 208 206
283 285 285 286 289 290 292 293 294 293 293 294 295 296 297 297 297 297 297 297 296 293 288 281 276 273 270 267 263 258 249 241 234 229 226 222 219 217 216 214 211 209 207 206
282 283 283 286 287 289 290 291 291 291 292 294 295 296 296 297 297 297 297 296 294 291 286 280 274 269 267 263 259 253 246 237 232 228 224 222 219 217 215 210 207 206 206 205
280 281 283 286 287 288 288 290 291 291 293 294 295 295 296 297 297 298 297 296 293 289 284 279 273 268 264 260 255 249 240 232 228 225 223 221 218 215 212 208 206 205 206 204
277 279 282 284 286 287 288 290 290 291 292 292 293 294 295 297 297 297 296 294 292 289 284 278 272 267 260 256 250 243 235 229 225 222 222 220 216 214 212 209 206 204 204 205
276 279 281 283 285 286 287 288 289 290 291 291 292 294 296 297 298 297 295 293 291 289 285 277 269 263 257 252 245 239 233 226 223 221 220 218 216 214 212 210 208 205 205 205
276 277 280 282 284 285 286 287 288 290 291 291 292 294 296 297 297 296 294 292 291 288 283 275 266 258 252 248 243 236 230 225 223 222 220 216 214 213 212 211 209 208 207 206
276 277 279 282 284 286 286 286 287 289 291 292 292 293 295 296 297 297 295 292 290 285 279 272 263 255 250 247 242 236 230 225 221 220 219 214 212 212 210 209 209 208 208 207
277 278 280 282 284 285 284 285 287 289 291 292 292 293 294 296 298 296 294 292 288 280 274 268 260 255 249 244 239 233 229 224 220 218 218 215 213 211 208 206 204 203 202 203
278 280 281 283 284 284 284 285 287 290 292 292 292 294 297 298 298 295 293 290 284 277 271 264 256 249 243 239 235 228 224 221 218 216 215 214 212 209 206 202 200 199 198 199
279 280 282 284 284 284 284 285 288 291 292 291 293 295 298 298 296 294 291 286 281 276 268 259 250 244 241 238 234 230 226 221 218 217 214 212 210 207 204 201 199 197 198 199
279 281 283 284 284 284 285 287 290 291 291 291 293 295 297 296 296 294 289 284 279 274 265 255 247 242 239 237 235 231 226 220 218 216 213 210 209 206 204 201 199 197 197 198
280 282 284 284 285 285 286 287 289 290 290 291 293 295 295 294 294 294 289 282 276 270 262 254 246 240 235 232 230 228 225 220 217 215 211 209 208 206 205 203 198 196 196 197
282 283 284 284 284 284 284 287 289 290 291 292 292 293 293 292 291 291 288 281 274 269 262 254 246 238 231 228 227 225 222 217 212 211 209 207 206 206 204 202 199 197 196 197
283 283 283 283 283 283 284 287 288 289 291 292 292 291 291 291 289 288 285 279 271 266 261 252 244 237 232 225 221 218 216 214 210 208 206 205 204 204 202 199 198 196 197 197
282 282 283 283 283 285 287 288 289 290 292 292 292 291 291 289 287 285 283 276 269 265 261 250 242 236 228 221 216 214 212 210 206 203 202 203 202 201 200 198 197 197 198 198
282 282 282 283 285 287 288 288 288 290 291 292 292 291 289 287 286 284 278 273 269 265 258 247 240 233 224 218 214 212 209 208 204 201 201 202 203 201 198 197 196 197 198 198
281 282 283 286 288 288 287 286 287 289 291 292 290 287 284 283 284 282 276 273 270 266 257 246 236 226 221 218 215 211 208 207 206 204 203 202 200 198 197 196 196 198 199 200
Height
5582 5579 5575 5572 5569 5564 5558 5552 5546 5542 5537 5534 5529 5523 5517 5511 5506 5500 5495 5490 5485 5481 5476 5472 5469 5465 5462 5460 5459 5458 5457 5457 5458 5459 5461 5464 5467 5472 5477 5484 5490 5498 5506 5514
5571 5569 5564 5561 5560 5555 5549 5543 5536 5531 5528 5525 5519 5513 5508 5502 5497 5492 5487 5482 5478 5473 5469 5465 5462 5459 5456 5454 5453 5452 5452 5451 5452 5454 5456 5459 5462 5467 5472 5479 5485 5493 5501 5509
5557 5556 5552 5551 5551 5546 5540 5535 5528 5521 5519 5515 5509 5504 5498 5493 5488 5483 5478 5474 5470 5466 5461 5458 5455 5452 5450 5449 5448 5447 5446 5446 5447 5449 5452 5455 5458 5464 5469 5475 5480 5487 5495 5503
5544 5543 5539 5544 5539 5534 5529 5524 5519 5513 5509 5504 5499 5494 5490 5484 5479 5474 5470 5466 5461 5457 5454 5450 5447 5445 5444 5442 5441 5440 5440 5440 5442 5444 5447 5450 5454 5459 5465 5470 5476 5483 5490 5498
5531 5527 5526 5531 5527 5522 5515 5513 5510 5503 5499 5494 5489 5484 5482 5476 5470 5466 5461 5457 5453 5449 5446 5443 5441 5438 5437 5436 5434 5434 5434 5434 5436 5438 5441 5445 5449 5455 5460 5465 5471 5478 5485 5493
5519 5515 5514 5520 5515 5509 5503 5501 5500 5493 5488 5484 5479 5475 5474 5468 5463 5458 5453 5449 5445 5441 5438 5436 5434 5432 5430 5429 5428 5428 5428 5428 5430 5433 5436 5440 5444 5449 5454 5460 5466 5473 5481 5488
5508 5503 5503 5506 5501 5496 5493 5491 5487 5482 5478 5474 5469 5466 5462 5458 5454 5449 5445 5441 5437 5433 5430 5428 5426 5424 5423 5422 5422 5422 5422 5423 5425 5427 5431 5435 5439 5444 5449 5455 5461 5468 5475 5483
5497 5493 5496 5493 5489 5486 5482 5479 5475 5471 5467 5464 5460 5456 5452 5448 5444 5440 5436 5432 5428 5425 5422 5420 5419 5417 5416 5416 5416 5416 5416 5417 5419 5422 5425 5430 5434 5439 5444 5450 5457 5464 5471 5478
5487 5487 5484 5481 5477 5474 5471 5468 5464 5460 5457 5454 5450 5447 5443 5439 5435 5431 5427 5424 5420 5416 5414 5412 5411 5410 5409 5409 5409 5410 5411 5412 5414 5416 5420 5425 5429 5434 5440 5446 5452 5460 5467 5474
5475 5476 5473 5469 5466 5463 5460 5456 5453 5450 5447 5444 5440 5437 5433 5430 5426 5422 5418 5415 5411 5408 5406 5405 5403 5402 5402 5402 5403 5403 5405 5406 5409 5412 5416 5420 5424 5430 5435 5442 5448 5455 5463 5470
5462 5463 5460 5459 5455 5452 5449 5445 5443 5440 5437 5433 5430 5427 5423 5420 5417 5413 5409 5406 5403 5400 5398 5397 5396 5395 5395 5396 5396 5398 5399 5401 5404 5407 5411 5415 5420 5425 5430 5437 5443 5451 5458 5466
5451 5451 5447 5447 5444 5441 5438 5435 5433 5430 5427 5424 5420 5417 5414 5411 5407 5404 5401 5398 5395 5392 5390 5389 5388 5388 5388 5389 5390 5391 5393 5396 5399 5402 5406 5410 5415 5420 5425 5432 5439 5446 5453 5461
5439 5437 5435 5434 5433 5430 5427 5425 5422 5420 5417 5414 5411 5408 5405 5402 5399 5396 5392 5390 5387 5384 5382 5381 5380 5381 5381 5382 5383 5385 5387 5390 5393 5397 5401 5405 5410 5416 5421 5428 5434 5441 5449 5456
5427 5425 5424 5424 5422 5420 5417 5415 5412 5410 5407 5404 5402 5399 5396 5393 5390 5387 5384 5381 5378 5376 5374 5373 5373 5373 5374 5375 5377 5379 5381 5384 5388 5392 5396 5401 5406 5411 5417 5423 5430 5437 5444 5451
5416 5415 5414 5413 5412 5409 5407 5405 5403 5400 5398 5395 5392 5390 5387 5384 5382 5379 5376 5373 5370 5368 5367 5366 5366 5367 5367 5369 5371 5373 5376 5379 5382 5386 5391 5396 5401 5407 5412 5419 5425 5432 5439 5446
5406 5405 5404 5403 5401 5399 5397 5395 5393 5391 5389 5386 5384 5381 5379 5376 5373 5370 5368 5365 5363 5361 5360 5359 5359 5360 5361 5363 5365 5367 5370 5373 5377 5381 5385 5390 5396 5402 5408 5414 5420 5426 5433 5440
5396 5395 5394 5393 5392 5390 5388 5386 5384 5382 5380 5378 5375 5373 5370 5368 5365 5362 5359 5357 5355 5354 5353 5353 5353 5354 5355 5357 5359 5361 5364 5367 5371 5375 5380 5385 5391 5396 5402 5408 5415 5421 5428 5435
5387 5386 5385 5384 5383 5381 5379 5377 5375 5373 5371 5369 5367 5364 5362 5359 5357 5354 5352 5350 5348 5347 5347 5347 5347 5349 5350 5352 5353 5356 5359 5362 5366 5370 5375 5380 5386 5391 5397 5403 5409 5416 5423 5430
5378 5377 5376 5375 5374 5372 5370 5369 5367 5365 5363 5361 5358 5356 5354 5352 5349 5347 5345 5343 5342 5341 5341 5341 5342 5344 5345 5347 5349 5352 5355 5358 5362 5366 5370 5375 5381 5386 5392 5398 5405 5411 5418 5425
5370 5369 5368 5366 5365 5364 5362 5361 5359 5357 5355 5353 5351 5349 5347 5345 5343 5341 5339 5338 5336 5336 5336 5336 5337 5339 5341 5343 5345 5347 5350 5354 5357 5361 5366 5371 5376 5382 5388 5395 5401 5407 5414 5421
5362 5361 5360 5358 5357 5356 5354 5353 5351 5349 5348 5346 5344 5342 5340 5338 5336 5334 5333 5332 5331 5330 5330 5331 5332 5334 5336 5338 5340 5343 5346 5349 5353 5357 5361 5367 5372 5378 5384 5390 5397 5403 5410 5417
5354 5353 5352 5351 5350 5348 5347 5345 5344 5342 5340 5339 5337 5335 5333 5331 5329 5328 5326 5326 5325 5325 5325 5326 5327 5329 5331 5333 5335 5338 5341 5345 5348 5352 5357 5362 5368 5374 5380 5386 5393 5399 5406 5413
5347 5346 5345 5344 5343 5341 5340 5338 5337 5335 5333 5332 5330 5328 5326 5325 5323 5322 5321 5320 5320 5320 5320 5321 5322 5323 5325 5328 5330 5333 5336 5340 5344 5348 5353 5358 5364 5370 5376 5382 5389 5395 5402 5409
5340 5339 5338 5337 5336 5335 5333 5332 5330 5328 5326 5325 5323 5321 5320 5319 5317 5316 5315 5315 5314 5315 5315 5316 5317 5319 5321 5323 5326 5329 5332 5336 5340 5344 5349 5354 5360 5365 5372 5378 5385 5391 5398 5405
5334 5333 5332 5330 5329 5328 5327 5325 5323 5322 5320 5318 5317 5315 5314 5313 5312 5311 5310 5309 5309 5310 5310 5311 5312 5314 5316 5319 5322 5325 5328 5332 5336 5341 5346 5351 5356 5362 5368 5374 5381 5388 5395 5401
5327 5326 5325 5324 5323 5321 5320 5318 5317 5315 5314 5312 5311 5310 5309 5307 5307 5306 5305 5305 5305 5305 5305 5306 5308 5309 5312 5315 5318 5321 5325 5328 5332 5337 5342 5347 5353 5359 5365 5371 5377 5384 5391 5397
5321 5320 5319 5318 5316 5315 5313 5312 5311 5310 5308 5307 5305 5304 5303 5303 5302 5301 5301 5300 5300 5301 5301 5302 5303 5305 5308 5310 5314 5317 5321 5325 5329 5334 5339 5344 5350 5355 5361 5367 5374 5381 5387 5394